Regional Weather Roundup
Issued by NWS

Home | Current Version | Previous Version | Graphics & Text | Print | Product List | Glossary On
Versions: 1 2 3 4 5 6 7 8 9 10 11 12 13 14 15 16 17 18 19 20 21 22 23 24 25 26 27 28 29 30 31 32 33 34 35 36 37 38 39 40 41 42 43 44 45 46 47 48 49 50
320
ASUS45 KBOU 130507
RWRCO

WEATHER ROUNDUP FOR COLORADO
NATIONAL WEATHER SERVICE DENVER/BOULDER CO
1000 PM MST FRI FEB 12 2016

NOTE: "FAIR" INDICATES FEW OR NO CLOUDS BELOW 12000 FEET WITH NO
SIGNIFICANT WEATHER AND/OR OBSTRUCTIONS TO VISIBILITY.

COZ001>005-013-030-031-130600-
...NORTHWEST COLORADO...

CITY           SKY/WX    TMP DP  RH WIND       PRES   REMARKS
CRAIG          FAIR      13   9  84 CALM      30.33F
HAYDEN         FAIR      27  16  63 SE9       30.32S WCI  17
MEEKER         FAIR      22  16  78 CALM      30.32S
MOUNT WERNER   NOT AVBL
STEAMBOAT SPGS FAIR      26  20  78 CALM      30.34S
WALDEN         FAIR      36  19  51 S8        30.34S
$$

COZ006>008-011-130600-
...WEST CENTRAL VALLEYS...

CITY           SKY/WX    TMP DP  RH WIND       PRES   REMARKS
GRAND JUNCTION FAIR      33  29  85 E3        30.33S
MONTROSE       FAIR      32  25  75 S9        30.37S WCI  24
EAGLE          CLEAR     28  25  86 CALM      30.38R
RIFLE          FAIR      30  21  69 CALM      30.34S
DELTA          FAIR      37  29  74 CALM      30.35S
NUCLA          FAIR      36  27  69 E12       30.37F
$$

COZ017>023-064>068-130600-
...SOUTHWEST COLORADO...

CITY           SKY/WX    TMP DP  RH WIND       PRES   REMARKS
DURANGO        FAIR      31  23  72 N5        30.38R WCI  26
CORTEZ         FAIR      28  23  81 NE7       30.36S WCI  21
PAGOSA SPRINGS FAIR      31  22  70 CALM      30.41S
TELLURIDE      FAIR      37  21  52 SE7       30.46S
WOLF CREEK PAS FAIR      32  16  51 SW20      30.57S WCI  20
$$

COZ009-010-012-014-032>034-037-058>063-130600-
...CENTRAL COLORADO...

CITY           SKY/WX    TMP DP  RH WIND       PRES   REMARKS
ASPEN          FAIR      28  19  69 S7        30.36F WCI  21
BUENA VISTA    FAIR      36  23  59 CALM      30.35F
COPPER MTN     FAIR      34  16  47 SW12G21   30.49F WCI  25
BERTHOUD PASS  FAIR      28  18  64 MISG      30.40F
COTTONWOOD PAS FAIR      45  14  29 W15G22    30.41S
GUNNISON       FAIR       7   7 100 NE5       30.49S WCI  -2
KREMMLING      FAIR      10   7  85 CALM      30.40S
LEADVILLE      FAIR      28  15  58 NE9       30.41S WCI  19
MONARCH PASS   FAIR      30  16  55 SW18      30.61F WCI  18
SALIDA         NOT AVBL
SUNLIGHT       FAIR      32  21  64 CALM      30.47F
WILKERSON PASS FAIR      32  18  55 W7        30.47S WCI  26
$$

COZ069>075-130600-
...SAN LUIS VALLEY/SANGRE DE CRISTO MOUNTAINS...

CITY           SKY/WX    TMP DP  RH WIND       PRES   REMARKS
ALAMOSA        FAIR      29  23  78 CALM      30.38S
LA VETA PASS   FAIR      36  18  48 S13G21    30.44S
SAGUACHE       FAIR      34  23  64 NW5       30.40S WCI  30
$$

COZ035-036-038>040-130600-
...NORTHERN COLORADO FRONT RANGE...

CITY           SKY/WX    TMP DP  RH WIND       PRES   REMARKS
DENVER INTL AP MOCLDY    34  30  85 W6        30.22F WCI  29
DMNS CITY PARK   N/A     36  32  84 NE3       30.23F
AURORA         MOCLDY    37  33  86 SW6       30.23F
FRONT RANGE AP NOT AVBL
ERIE MUNI ARPT FAIR      31  30  97 CALM      30.25S
BOULDER MUN AP FAIR      34  32  93 CALM      30.24F
CENTENNIAL     MOCLDY    39  32  76 CALM      30.23F
BROOMFIELD     PTCLDY    36  32  87 W3        30.24
FORT COLLINS   CLOUDY    32  28  86 E5        30.26F WCI  27
LONGMONT       FAIR      34  32  91 CALM      30.27S
$$

COZ041-046-047-076>085-087-088-130600-
...PIKES PEAK/PALMER DIVIDE AND SOUTHERN FOOTHILLS...

CITY           SKY/WX    TMP DP  RH WIND       PRES   REMARKS
COLO. SPRINGS  MOCLDY    39  28  64 E9        30.28S
A. F. ACADEMY  FAIR      32  27  81 N7        30.26F WCI  26
SCHRIEVER AFB  MOCLDY    38  28  67 N8        30.28S
ELLICOTT       FAIR     N/A N/A N/A SE12      30.25F
FALCON         FAIR      35  26  70 CALM      30.29F
FORT CARSON    FAIR      40  30  68 NE3       30.26S
LIMON          CLOUDY    29  29 100 S16       30.28F FOG     WCI  17
MONUMENT HILL  FAIR      37  28  70 SW15      30.27F
TRINIDAD       FAIR      50  22  33 W21       30.24F
$$

COZ042>045-048>051-090-091-130600-
...NORTHEAST COLORADO...

CITY           SKY/WX    TMP DP  RH WIND       PRES   REMARKS
GREELEY ARPT   CLOUDY    32  30  93 SE9       30.26F VSB 1/2 WCI  24
AKRON          FOG       29  29 100 SE20      30.26F VSB 1/2 WCI  16
BURLINGTON     FOG       29  27  92 SE15      30.33F VSB 1/4 WCI  18
WRAY           CLOUDY   N/A N/A N/A SE10      30.35F FOG
STERLING       CLOUDY    32  32 100 S8        30.29F FOG     WCI  25
HOLYOKE        CLOUDY    34  32  93 S13       30.34F FOG     WCI  25
FORT MORGAN    FOG       32  31  96 E9        30.27F VSB 1/2 WCI  24
$$

COZ086-089-092>099-130600-
...SOUTHEAST COLORADO...

CITY           SKY/WX    TMP DP  RH WIND       PRES   REMARKS
PUEBLO         FAIR      44  30  57 E13       30.25R
LA JUNTA       FAIR      34  28  79 E17G24    30.24R WCI  23
LAMAR          FAIR      30  27  88 E12       30.31S WCI  20
SPRINGFIELD      N/A     34  27  75 SE10      30.31S WCI  26
$$




USA.gov is the U.S. government's official web portal to all federal, state and local government web resources and services.